Terminal Aerodrome Forecast
Issued by NWS Milwaukee/Sullivan, WI

Home | Current Version | Previous Version | Text Only | Print | Product List | Glossary On
Versions: 1 2 3 4 5 6 7 8 9 10 11 12 13 14 15 16 17 18 19 20 21 22 23 24 25 26 27 28 29 30 31 32 33 34 35 36 37 38 39 40 41 42 43 44 45 46 47 48 49 50
000
FTUS43 KMKX 041457 AAB
TAFMSN
TAF AMD
KMSN 041457Z 0415/0512 35012KT P6SM BKN035 BKN070
      TEMPO 0415/0416 BKN030
     FM042300 36012G20KT P6SM SCT050
     FM050100 36008KT P6SM FEW060=

USA.gov is the U.S. government's official web portal to all federal, state and local government web resources and services.